Retour au catalogue

ONEWEB-0203

ActifCommunicationsPO
NORAD 48235·PAYLOAD·🇬🇧 United Kingdom

Lancé Apr 25, 2021 depuis Vostochny Cosmodrome

Loading…

Prochains Passages (prochaines 24 heures)

TLE

FraisSource: CelesTrak SupGP

Époque: Sep 14, 2026, 22:12 UTC

1 48235C 21031AB  26257.92517778  .00001924  00000+0  51973-2 0  2576
2 48235  87.8899 271.8071 0002051  85.1188 312.0331 13.14499660    15

Suivez ONEWEB-0203 en temps réel avec AllMySat

Download on the App Store